TimeEDT,TemperatureF,Dew PointF,Humidity,Sea Level PressureIn,VisibilityMPH,Wind Direction,Wind SpeedMPH,Gust SpeedMPH,PrecipitationIn,Events,Conditions,WindDirDegrees,DateUTC
12:11 AM,50.9,46.9,86,30.22,10.0,Calm,Calm,-,N/A,,Clear,0,2013-09-18 04:11:00
12:31 AM,50.9,47.3,87,30.22,10.0,Calm,Calm,-,N/A,,Clear,0,2013-09-18 04:31:00
12:53 AM,50.7,46.6,86,30.21,10.0,Calm,Calm,-,N/A,,Clear,0,2013-09-18 04:53:00
1:13 AM,47.1,44.4,90,30.21,10.0,Calm,Calm,-,N/A,,Clear,0,2013-09-18 05:13:00
1:33 AM,48.6,45.9,90,30.21,10.0,Calm,Calm,-,N/A,,Clear,0,2013-09-18 05:33:00
1:53 AM,44.8,43.3,95,30.21,10.0,Calm,Calm,-,N/A,,Clear,0,2013-09-18 05:53:00
2:13 AM,42.4,41.0,95,30.20,5.0,Calm,Calm,-,N/A,,Clear,0,2013-09-18 06:13:00
2:34 AM,42.4,41.2,95,30.20,5.0,Calm,Calm,-,N/A,,Clear,0,2013-09-18 06:34:00
2:54 AM,43.3,42.4,97,30.19,5.0,Calm,Calm,-,N/A,,Clear,0,2013-09-18 06:54:00
3:14 AM,42.4,41.5,97,30.19,3.0,Calm,Calm,-,N/A,,Clear,0,2013-09-18 07:14:00
3:29 AM,41.5,40.8,97,30.18,0.5,Calm,Calm,-,N/A,Fog,Fog,0,2013-09-18 07:29:00
3:51 AM,42.3,41.5,97,30.18,1.2,Calm,Calm,-,N/A,,Scattered Clouds,0,2013-09-18 07:51:00
4:11 AM,41.4,40.6,97,30.17,5.0,Calm,Calm,-,N/A,,Clear,0,2013-09-18 08:11:00
4:31 AM,41.9,41.2,97,30.17,7.0,Calm,Calm,-,N/A,,Clear,0,2013-09-18 08:31:00
4:52 AM,43.3,42.6,97,30.17,7.0,Calm,Calm,-,N/A,,Clear,0,2013-09-18 08:52:00
5:12 AM,43.0,42.3,97,30.16,5.0,Calm,Calm,-,N/A,,Clear,0,2013-09-18 09:12:00
5:32 AM,44.6,43.9,97,30.16,10.0,Calm,Calm,-,N/A,,Clear,0,2013-09-18 09:32:00
5:52 AM,43.5,42.8,97,30.16,10.0,Calm,Calm,-,N/A,,Clear,0,2013-09-18 09:52:00
6:14 AM,42.6,41.4,95,30.16,10.0,Calm,Calm,-,N/A,,Clear,0,2013-09-18 10:14:00
6:34 AM,41.2,40.5,97,30.16,7.0,Calm,Calm,-,N/A,,Clear,0,2013-09-18 10:34:00
6:54 AM,42.4,41.7,97,30.16,7.0,Calm,Calm,-,N/A,,Clear,0,2013-09-18 10:54:00
7:15 AM,42.8,42.1,97,30.16,7.0,Calm,Calm,-,N/A,,Clear,0,2013-09-18 11:15:00
7:35 AM,42.4,41.7,97,30.16,10.0,Calm,Calm,-,N/A,,Clear,0,2013-09-18 11:35:00
7:55 AM,45.0,44.1,97,30.16,10.0,Calm,Calm,-,N/A,,Clear,0,2013-09-18 11:55:00
8:15 AM,46.4,45.5,97,30.16,10.0,Calm,Calm,-,N/A,,Clear,0,2013-09-18 12:15:00
8:35 AM,49.5,48.2,95,30.16,10.0,Calm,Calm,-,N/A,,Clear,0,2013-09-18 12:35:00
8:55 AM,50.2,48.2,93,30.16,10.0,Calm,Calm,-,N/A,,Clear,0,2013-09-18 12:55:00
9:12 AM,51.3,49.1,92,30.16,10.0,Calm,Calm,-,N/A,,Clear,0,2013-09-18 13:12:00
9:32 AM,52.7,50.0,91,30.16,10.0,Calm,Calm,-,N/A,,Clear,0,2013-09-18 13:32:00
9:53 AM,56.5,52.2,85,30.16,10.0,South,4.6,-,N/A,,Clear,190,2013-09-18 13:53:00
10:13 AM,60.1,52.9,77,30.16,10.0,SW,5.8,-,N/A,,Clear,220,2013-09-18 14:13:00
10:33 AM,63.0,53.6,71,30.15,10.0,South,6.9,-,N/A,,Clear,190,2013-09-18 14:33:00
10:53 AM,65.3,54.0,67,30.15,10.0,SSW,6.9,-,N/A,,Clear,200,2013-09-18 14:53:00
11:13 AM,66.9,54.0,63,30.14,10.0,West,4.6,-,N/A,,Clear,260,2013-09-18 15:13:00
11:33 AM,68.7,54.3,60,30.14,10.0,South,4.6,-,N/A,,Clear,180,2013-09-18 15:33:00
11:50 AM,71.2,54.1,55,30.13,10.0,SSW,5.8,-,N/A,,Clear,210,2013-09-18 15:50:00
12:11 PM,73.4,53.1,49,30.12,10.0,SSW,4.6,-,N/A,,Clear,200,2013-09-18 16:11:00
12:31 PM,74.3,51.8,45,30.11,10.0,SW,5.8,-,N/A,,Clear,220,2013-09-18 16:31:00
12:51 PM,75.0,50.7,42,30.11,10.0,South,8.1,-,N/A,,Clear,190,2013-09-18 16:51:00
1:11 PM,76.3,50.2,40,30.10,10.0,SW,9.2,-,N/A,,Clear,230,2013-09-18 17:11:00
1:31 PM,77.0,50.4,39,30.09,10.0,South,10.4,-,N/A,,Clear,190,2013-09-18 17:31:00
1:51 PM,77.0,48.6,37,30.08,10.0,SSW,8.1,17.3,N/A,,Clear,200,2013-09-18 17:51:00
2:11 PM,77.5,47.8,35,30.08,10.0,South,8.1,16.1,N/A,,Clear,190,2013-09-18 18:11:00
2:32 PM,77.4,49.5,37,30.07,10.0,South,9.2,-,N/A,,Scattered Clouds,190,2013-09-18 18:32:00
2:54 PM,78.6,48.0,34,30.07,10.0,SSW,12.7,17.3,N/A,,Scattered Clouds,200,2013-09-18 18:54:00
3:14 PM,79.5,48.4,33,30.06,10.0,South,11.5,17.3,N/A,,Scattered Clouds,190,2013-09-18 19:14:00
3:34 PM,77.9,47.7,34,30.05,10.0,South,10.4,18.4,N/A,,Scattered Clouds,190,2013-09-18 19:34:00
3:54 PM,79.5,45.3,30,30.05,10.0,SSW,13.8,20.7,N/A,,Scattered Clouds,210,2013-09-18 19:54:00
4:14 PM,78.3,46.6,33,30.04,10.0,SSW,12.7,19.6,N/A,,Scattered Clouds,210,2013-09-18 20:14:00
4:34 PM,78.8,45.1,30,30.04,10.0,SSW,13.8,18.4,N/A,,Clear,200,2013-09-18 20:34:00
4:54 PM,78.6,45.1,31,30.03,10.0,SW,8.1,18.4,N/A,,Clear,220,2013-09-18 20:54:00
5:06 PM,78.6,46.8,32,30.03,10.0,South,10.4,-,N/A,,Scattered Clouds,190,2013-09-18 21:06:00
5:33 PM,78.1,48.2,35,30.02,10.0,South,10.4,17.3,N/A,,Clear,180,2013-09-18 21:33:00
5:53 PM,77.7,47.7,35,30.02,10.0,South,12.7,17.3,N/A,,Scattered Clouds,180,2013-09-18 21:53:00
6:13 PM,77.4,47.7,35,30.01,10.0,SSW,11.5,-,N/A,,Clear,200,2013-09-18 22:13:00
6:33 PM,76.6,49.3,38,30.01,10.0,South,8.1,-,N/A,,Clear,190,2013-09-18 22:33:00
6:53 PM,75.7,51.1,42,30.01,10.0,South,6.9,-,N/A,,Scattered Clouds,190,2013-09-18 22:53:00
7:13 PM,73.9,52.5,47,30.02,10.0,South,4.6,-,N/A,,Clear,180,2013-09-18 23:13:00
7:34 PM,71.4,52.5,51,30.01,10.0,South,4.6,-,N/A,,Clear,170,2013-09-18 23:34:00
7:54 PM,70.7,53.6,55,30.01,10.0,Calm,Calm,-,N/A,,Clear,0,2013-09-18 23:54:00
8:14 PM,70.0,54.5,58,30.01,10.0,Calm,Calm,-,N/A,,Clear,0,2013-09-19 00:14:00
8:34 PM,69.1,54.5,60,30.01,10.0,Calm,Calm,-,N/A,,Clear,0,2013-09-19 00:34:00
8:54 PM,68.2,54.5,62,30.02,10.0,Calm,Calm,-,N/A,,Clear,0,2013-09-19 00:54:00
9:14 PM,67.1,54.5,64,30.03,10.0,Calm,Calm,-,N/A,,Clear,0,2013-09-19 01:14:00
9:34 PM,67.3,54.5,63,30.03,10.0,Calm,Calm,-,N/A,,Clear,0,2013-09-19 01:34:00
9:54 PM,65.8,54.7,67,30.03,10.0,Calm,Calm,-,N/A,,Clear,0,2013-09-19 01:54:00
10:15 PM,65.8,54.5,67,30.03,10.0,SSE,3.5,-,N/A,,Clear,160,2013-09-19 02:15:00
10:35 PM,65.7,54.1,66,30.03,10.0,Calm,Calm,-,N/A,,Clear,0,2013-09-19 02:35:00
10:55 PM,64.9,54.1,68,30.02,10.0,SSE,3.5,-,N/A,,Clear,160,2013-09-19 02:55:00
11:15 PM,64.6,53.4,67,30.03,10.0,SSE,3.5,-,N/A,,Clear,160,2013-09-19 03:15:00
11:35 PM,63.9,53.4,69,30.02,10.0,SSE,3.5,-,N/A,,Clear,150,2013-09-19 03:35:00
11:55 PM,62.6,54.1,74,30.03,10.0,Calm,Calm,-,N/A,,Clear,0,2013-09-19 03:55:00